Details for Thomas Cook Airlines at EGPF




Go Back


Latest METAR
Local Time

EGPF 250450Z 05005KT 5000 2400N BR SCT005 08/07 Q1025

25/05/2018, 06:05:36

Description
Results
Thomas Cook Airlines Logo
Number of Pilots based at EGPF
2 Pilots Based here
Number of Thomas Cook Airlines Flights Departed from EGPF
0 Flights Departed
Number of Thomas Cook Airlines Flights Arrived at EGPF
0 Flights Arrived
Number of Thomas Cook Airlines Schedules Departing from EGPF
26 Schedules
Number of Thomas Cook Airlines Schedules Arriving at EGPF
26 Schedules
Number of Thomas Cook Airlines Schedules Departing from EGPF availible today
5 Schedules Today
Number of Thomas Cook Airlines Schedules Arriving at EGPF availible today
5 Schedules Today
Average Landing Rate at EGPF
-208 fpm
Thomas Cook Airlines Average Landing Rate at EGPF
0 fpm
Total Fuel Purchased at EGPF by Thomas Cook Airlines
0.00 kgs / 0.00 lbs

Pilots Based at EGPF


Pilot ID
Pilot Name
Pilot Rank
No. of Flights
No. of Flying Hours
Renaat Meeuws
44
68.47
Thomas Bell
369
622.32
Content